• In Netherlands
  • List of Countries
  • For 7 days
  • Water Temperature
  • Satellite Maps
  • Weather Map
  • Weather Widgets
  • user-avatar
    Login

    Hourly Weather Malanville

    Today, 19 February, Sunday

    Time Temperature Precipitation Wind Pressure Humidity
    00:00 +20°C° 0 mm 3 mps 746 mmHg 13%
    01:00 +19°C° 0 mm 3 mps 746 mmHg 14%
    02:00 +18°C° 0 mm 3 mps 746 mmHg 15%
    03:00 +17°C° 0 mm 2 mps 746 mmHg 16%
    04:00 +16°C° 0 mm 2 mps 746 mmHg 16%
    05:00 +16°C° 0 mm 2 mps 747 mmHg 17%
    06:00 +15°C° 0 mm 2 mps 747 mmHg 17%
    07:00 +18°C° 0 mm 3 mps 747 mmHg 14%
    08:00 +21°C° 0 mm 3 mps 747 mmHg 12%
    09:00 +26°C° 0 mm 4 mps 748 mmHg 9%
    10:00 +29°C° 0 mm 4 mps 747 mmHg 7%
    11:00 +33°C° 0 mm 4 mps 747 mmHg 6%
    12:00 +36°C° 0 mm 3 mps 746 mmHg 4%
    13:00 +37°C° 0 mm 3 mps 745 mmHg 4%
    14:00 +38°C° 0 mm 3 mps 744 mmHg 3%
    15:00 +38°C° 0 mm 3 mps 744 mmHg 3%
    16:00 +35°C° 0 mm 2 mps 743 mmHg 4%
    17:00 +30°C° 0 mm 2 mps 743 mmHg 5%
    18:00 +27°C° 0 mm 2 mps 743 mmHg 6%
    19:00 +26°C° 0 mm 2 mps 744 mmHg 7%
    20:00 +25°C° 0 mm 2 mps 744 mmHg 7%
    21:00 +24°C° 0 mm 2 mps 745 mmHg 8%
    22:00 +23°C° 0 mm 2 mps 745 mmHg 8%
    23:00 +21°C° 0 mm 2 mps 745 mmHg 9%

    Tomorrow, 20 February, Monday

    Time Temperature Precipitation Wind Pressure Humidity
    00:00 +20°C° 0 mm 2 mps 745 mmHg 9%
    01:00 +20°C° 0 mm 2 mps 745 mmHg 10%
    02:00 +19°C° 0 mm 2 mps 744 mmHg 11%
    03:00 +19°C° 0 mm 2 mps 744 mmHg 11%
    04:00 +18°C° 0 mm 2 mps 744 mmHg 12%
    05:00 +18°C° 0 mm 2 mps 745 mmHg 12%
    06:00 +17°C° 0 mm 2 mps 745 mmHg 13%
    07:00 +21°C° 0 mm 3 mps 745 mmHg 11%
    08:00 +25°C° 0 mm 3 mps 746 mmHg 9%
    09:00 +29°C° 0 mm 4 mps 747 mmHg 7%
    10:00 +33°C° 0 mm 4 mps 746 mmHg 6%
    11:00 +36°C° 0 mm 3 mps 746 mmHg 6%
    12:00 +39°C° 0 mm 3 mps 745 mmHg 5%
    13:00 +40°C° 0 mm 2 mps 744 mmHg 5%
    14:00 +41°C° 0 mm 2 mps 743 mmHg 4%
    15:00 +42°C° 0 mm 1 mps 742 mmHg 4%
    16:00 +36°C° 0 mm 1 mps 742 mmHg 6%
    17:00 +31°C° 0 mm 1 mps 742 mmHg 9%
    18:00 +26°C° 0 mm 1 mps 742 mmHg 11%
    19:00 +26°C° 0 mm 1 mps 742 mmHg 10%
    20:00 +26°C° 0 mm 2 mps 743 mmHg 10%
    21:00 +27°C° 0 mm 2 mps 744 mmHg 10%
    22:00 +26°C° 0 mm 2 mps 744 mmHg 10%
    23:00 +25°C° 0 mm 2 mps 744 mmHg 11%

    Day after tomorrow, 21 February, Tuesday

    Time Temperature Precipitation Wind Pressure Humidity
    00:00 +24°C° 0 mm 2 mps 744 mmHg 11%
    01:00 +23°C° 0 mm 2 mps 743 mmHg 12%
    02:00 +23°C° 0 mm 2 mps 743 mmHg 12%
    03:00 +21°C° 0 mm 2 mps 743 mmHg 13%
    04:00 +20°C° 0 mm 2 mps 743 mmHg 13%
    05:00 +20°C° 0 mm 2 mps 743 mmHg 14%
    06:00 +20°C° 0 mm 2 mps 744 mmHg 14%
    07:00 +24°C° 0 mm 3 mps 744 mmHg 12%
    08:00 +27°C° 0 mm 3 mps 745 mmHg 10%
    09:00 +32°C° 0 mm 4 mps 746 mmHg 8%
    10:00 +35°C° 0 mm 4 mps 745 mmHg 7%
    11:00 +38°C° 0 mm 4 mps 744 mmHg 6%
    12:00 +40°C° 0 mm 3 mps 744 mmHg 5%
    13:00 +42°C° 0 mm 3 mps 743 mmHg 5%
    14:00 +42°C° 0 mm 2 mps 742 mmHg 5%
    15:00 +42°C° 0 mm 1 mps 741 mmHg 5%
    16:00 +37°C° 0 mm 1 mps 741 mmHg 7%
    17:00 +32°C° 0 mm 1 mps 741 mmHg 10%
    18:00 +28°C° 0 mm 1 mps 741 mmHg 12%
    19:00 +28°C° 0 mm 1 mps 742 mmHg 12%
    20:00 +28°C° 0 mm 2 mps 742 mmHg 11%
    21:00 +28°C° 0 mm 2 mps 743 mmHg 11%
    22:00 +27°C° 0 mm 2 mps 743 mmHg 11%
    23:00 +26°C° 0 mm 2 mps 743 mmHg 11%

    22 February, Wednesday

    Time Temperature Precipitation Wind Pressure Humidity
    00:00 +25°C° 0 mm 2 mps 743 mmHg 12%
    01:00 +24°C° 0 mm 2 mps 743 mmHg 12%
    02:00 +24°C° 0 mm 2 mps 742 mmHg 11%
    03:00 +23°C° 0 mm 2 mps 742 mmHg 11%
    04:00 +23°C° 0 mm 2 mps 743 mmHg 11%
    05:00 +21°C° 0 mm 3 mps 743 mmHg 11%
    06:00 +21°C° 0 mm 3 mps 743 mmHg 11%
    07:00 +25°C° 0 mm 3 mps 744 mmHg 9%
    08:00 +28°C° 0 mm 4 mps 745 mmHg 7%
    09:00 +33°C° 0 mm 4 mps 745 mmHg 5%
    10:00 +35°C° 0 mm 4 mps 745 mmHg 5%
    11:00 +38°C° 0 mm 4 mps 744 mmHg 4%
    12:00 +42°C° 0 mm 4 mps 743 mmHg 3%
    13:00 +43°C° 0 mm 3 mps 742 mmHg 4%
    14:00 +43°C° 0 mm 3 mps 741 mmHg 4%
    15:00 +43°C° 0 mm 2 mps 740 mmHg 4%
    16:00 +39°C° 0 mm 2 mps 741 mmHg 5%
    17:00 +35°C° 0 mm 2 mps 741 mmHg 7%
    18:00 +30°C° 0 mm 2 mps 741 mmHg 9%
    19:00 +29°C° 0 mm 2 mps 741 mmHg 9%
    20:00 +29°C° 0 mm 2 mps 742 mmHg 9%
    21:00 +28°C° 0 mm 2 mps 743 mmHg 9%
    22:00 +27°C° 0 mm 2 mps 742 mmHg 9%
    23:00 +26°C° 0 mm 2 mps 742 mmHg 9%

    23 February, Thursday

    Time Temperature Precipitation Wind Pressure Humidity
    00:00 +25°C° 0 mm 2 mps 742 mmHg 10%
    01:00 +24°C° 0 mm 2 mps 742 mmHg 10%
    02:00 +23°C° 0 mm 2 mps 742 mmHg 10%
    03:00 +23°C° 0 mm 2 mps 742 mmHg 11%
    04:00 +21°C° 0 mm 2 mps 742 mmHg 11%
    05:00 +21°C° 0 mm 2 mps 743 mmHg 11%
    06:00 +20°C° 0 mm 2 mps 743 mmHg 11%
    07:00 +25°C° 0 mm 3 mps 744 mmHg 10%
    08:00 +29°C° 0 mm 4 mps 744 mmHg 8%
    09:00 +33°C° 0 mm 5 mps 745 mmHg 6%
    10:00 +36°C° 0 mm 4 mps 744 mmHg 5%
    11:00 +40°C° 0 mm 4 mps 743 mmHg 5%
    12:00 +42°C° 0 mm 4 mps 743 mmHg 4%
    13:00 +43°C° 0 mm 3 mps 742 mmHg 4%
    14:00 +43°C° 0 mm 2 mps 741 mmHg 4%
    15:00 +43°C° 0 mm 2 mps 740 mmHg 4%
    16:00 +37°C° 0 mm 1 mps 740 mmHg 6%
    17:00 +32°C° 0 mm 1 mps 740 mmHg 8%
    18:00 +27°C° 0 mm 1 mps 740 mmHg 10%
    19:00 +27°C° 0 mm 1 mps 741 mmHg 13%
    20:00 +26°C° 0 mm 1 mps 741 mmHg 16%
    21:00 +26°C° 0 mm 1 mps 742 mmHg 19%
    22:00 +25°C° 0 mm 2 mps 742 mmHg 16%
    23:00 +25°C° 0 mm 2 mps 742 mmHg 14%

    24 February, Friday

    Time Temperature Precipitation Wind Pressure Humidity
    00:00 +25°C° 0 mm 2 mps 742 mmHg 11%
    01:00 +24°C° 0 mm 2 mps 742 mmHg 11%
    02:00 +24°C° 0 mm 2 mps 741 mmHg 11%
    03:00 +23°C° 0 mm 2 mps 741 mmHg 12%
    04:00 +23°C° 0 mm 2 mps 742 mmHg 12%
    05:00 +21°C° 0 mm 2 mps 742 mmHg 13%
    06:00 +21°C° 0 mm 2 mps 743 mmHg 13%
    07:00 +25°C° 0 mm 3 mps 743 mmHg 12%
    08:00 +28°C° 0 mm 3 mps 744 mmHg 10%
    09:00 +33°C° 0 mm 4 mps 744 mmHg 8%
    10:00 +36°C° 0 mm 4 mps 743 mmHg 7%
    11:00 +40°C° 0 mm 4 mps 743 mmHg 6%
    12:00 +42°C° 0 mm 4 mps 742 mmHg 5%
    13:00 +43°C° 0 mm 4 mps 741 mmHg 5%
    14:00 +44°C° 0 mm 3 mps 740 mmHg 5%
    15:00 +44°C° 0 mm 3 mps 739 mmHg 5%
    16:00 +39°C° 0 mm 2 mps 740 mmHg 7%
    17:00 +34°C° 0 mm 2 mps 740 mmHg 9%
    18:00 +29°C° 0 mm 1 mps 740 mmHg 11%
    19:00 +28°C° 0 mm 1 mps 740 mmHg 15%
    20:00 +27°C° 0 mm 1 mps 741 mmHg 19%
    21:00 +25°C° 0 mm 1 mps 741 mmHg 24%
    22:00 +26°C° 0 mm 1 mps 741 mmHg 20%
    23:00 +26°C° 0 mm 2 mps 741 mmHg 16%
    Show more